フェリス彗星

C/1999 K2 ( Ferris )

English version
Home page
Updated on September 27, 1999

---------------------------------------------------------------------

・ プロフィール

発見日 1999年 5月19日
発見光度 18.1等
発見者 William D. Ferris (LONEOS)

・ 写真集

・ 軌道要素

   The following improved orbital elements by Kenji Muraoka, are 
  from 90 observations  1999 May 19  to  Aug. 22, perturbations 
  by 9 Planets, Moon and 5 minor planets were taken into account.
   The mean residual is +/- 0.69 arc seconds.

      Epoch  =  1999 Apr. 12.0  TT       JDT = 2451280.5
          T  =  1999 Apr. 10.48873       +/- 0.07044 (m.e.) TT
       Peri. =    4.56506                +/- 0.00608
       Node  =  300.31861                +/- 0.00219   (2000.0)
       Incl. =   82.19189                +/- 0.00560
          q  =    5.2903914              +/- 0.0001858 AU
          e  =    0.9659754              +/- 0.0001730
        1/a  =   +0.0064314              +/- 0.0000327 1/AU
        ( P  =   1939 years )
  orig. 1/a  =   +0.006869 
  fut.  1/a  =   +0.007056 

・ 星図

・ 光度変化

        m1 = 5.5 + 5 logΔ + 10.0 log r

---------------------------------------------------------------------

軌道要素は村岡健治氏の計算によるものです。
星図は StellaNavigator Ver.2.0 for Windows (アストロアーツ 編著 / アスキー出版局刊) で作成したものです。
光度グラフはComet for Windowsで作成したものです。

---------------------------------------------------------------------

Copyright(C) Seiichi Yoshida (comet@aerith.net). All rights reserved.